SL-12 R/B(2), 23683

Orbit data source: Space-Track

SL-12 R/B(2), 23683 is space debris in GEO originally from a launch on Wed, 11 Oct 1995 UTC launched from the Tyuratam Missile And Space Complex (TTMTR). Debris objects in space refer to the collection of defunct objects orbiting the Earth. Examples of debris include non-operational satellites, rocket bodies, and fragments generated from explosions, collisions, or faulty payload assembly.

Not visible in the next 10 days
Identifier
23683, 1995-054D
Orbit
GEO
Country
Flag of CISCIS
Related business
Manufacturer
RKKE
Mission
Spacecraft
Bus & Motor
BLOK DM, Unknown motor
Mass
2,440 kg wet, 2,440 kg dry
Launch date (UTC)
1995-10-11 (31 years ago)
Launch vehicle
Unknown
Launch site
Tyuratam Missile And Space Complex (TTMTR)
Object type
Payload
Rocket body
Debris
Shape & HBR
Cyl, 3.6 m
Radar Cross Section
23.597 m², Large (>1 m²)

Expand to show TLE details & history
Last TLE update: 3 weeks ago

TLE from 3 weeks ago
0 SL-12 R/B(2)
1 23683U 95054D   26241.89445222  .00000091  00000-0  00000+0 0  9995
2 23683  15.0068 358.4721 0018278 105.8561 247.5741  1.00173622113104
Epoch: 2026-08-29T21:28Z
TLE epoch observation values (Epoch: 2026-08-29T21:28:00.671Z)
Latitude
-1.76077°
Longitude
51.81572°
Altitude
35,843.871 km
Speed
3.072 km/s
True Right ascension
23h 27m 39s
True Declination
-1° 45' 32"
Sunlit
Object was in daylight at epoch
Visualization orbit readout
Latitude
Unknown
Longitude
Unknown
Altitude
Unknown
Speed
Unknown
Apparent Right ascension
Unknown
Apparent Declination
Unknown
Sunlit
N/A
Visualization observer readout
Local Sidereal Time
06:08:36
Azimuth
Unknown
Elevation
Unknown
Doppler factor
Unknown
Orbital elements
Apogee altitude
35,892.222 km
Perigee altitude
35,737.98 km
Semi-major axis
42,193.238 km
Eccentricity
0.00183
Inclination
15.0068°
RAAN
358.4721°
Arg. of periapsis
105.8561°
True anomaly
247.38066°
Mean anomaly
247.5741°
Eccentric anomaly
247.47736°
Mean motion
0.25043 °/min
Orbital period
1,437.55 mins
BSTAR
0
Loading maneuver chart data...
Computing Atmospheric mass density...
Loading historical data...
Loading historical data...
Loading historical data...
Loading historical data...
Loading historical data...
Loading historical data...
Loading historical data...

Documentation

Showing up to 5 results
|